| time (UTC) | temp C | wind direction | speed KPH | gust KPH | rain 1hr cm | rain 24hr cm | rain mn cm | humidity % | barometer mb |
| 20260508231619 | 9 | 315 | 0.0 | 0.0 | 0.00 | 0.00 | 0.00 | 10 | 1022.2 |
| 20260508230552 | 9 | 315 | 0.0 | 0.0 | 0.00 | 0.00 | 0.00 | 10 | 1022.3 |
| 20260508225524 | 9 | 315 | 0.0 | 0.0 | 0.00 | 0.00 | 0.00 | 10 | 1022.3 |
| 20260508224457 | 9 | 315 | 4.8 | 0.0 | 0.00 | 0.00 | 0.00 | 10 | 1022.3 |
| 20260508223429 | 9 | 315 | 0.0 | 0.0 | 0.00 | 0.00 | 0.00 | 10 | 1022.2 |
| 20260508220307 | 9 | 315 | 0.0 | 0.0 | 0.00 | 0.00 | 0.00 | 10 | 1022.2 |
| 20260508215240 | 9 | 315 | 0.0 | 0.0 | 0.00 | 0.00 | 0.00 | 10 | 1022.2 |
| 20260508213145 | 9 | 315 | 0.0 | 0.0 | 0.00 | 0.00 | 0.00 | 10 | 1022.3 |
| 20260508212118 | 9 | 315 | 0.0 | 0.0 | 0.00 | 0.00 | 0.00 | 10 | 1022.3 |
| 20260508211050 | 10 | 315 | 0.0 | 0.0 | 0.00 | 0.00 | 0.00 | 10 | 1022.2 |
| 20260508210023 | 10 | 315 | 0.0 | 0.0 | 0.00 | 0.00 | 0.00 | 10 | 1022.3 |
| 20260508201834 | 10 | 315 | 0.0 | 0.0 | 0.00 | 0.00 | 0.00 | 10 | 1022.2 |
| 20260508200806 | 10 | 315 | 0.0 | 0.0 | 0.00 | 0.00 | 0.00 | 10 | 1022.1 |
| 20260508195739 | 10 | 315 | 0.0 | 0.0 | 0.00 | 0.00 | 0.00 | 10 | 1022.1 |
| 20260508193644 | 10 | 315 | 0.0 | 0.0 | 0.00 | 0.00 | 0.00 | 10 | 1022.0 |
| 20260508191549 | 10 | 315 | 6.4 | 0.0 | 0.00 | 0.00 | 0.00 | 10 | 1021.8 |
| 20260508190522 | 10 | 315 | 4.8 | 0.0 | 0.00 | 0.00 | 0.00 | 10 | 1021.7 |
| 20260508185455 | 10 | 270 | 1.6 | 0.0 | 0.00 | 0.00 | 0.00 | 10 | 1021.7 |
| 20260508184427 | 11 | 0 | 0.0 | 0.0 | 0.00 | 0.00 | 0.00 | 10 | 1021.6 |
| 20260508183400 | 11 | 270 | 8.0 | 0.0 | 0.00 | 0.00 | 0.00 | 10 | 1021.5 |
| 20260508175210 | 11 | 315 | 0.0 | 0.0 | 0.00 | 0.00 | 0.00 | 10 | 1021.5 |
| 20260508174142 | 11 | 315 | 4.8 | 0.0 | 0.00 | 0.00 | 0.00 | 10 | 1021.4 |
| 20260508171020 | 11 | 315 | 1.6 | 0.0 | 0.00 | 0.00 | 0.00 | 10 | 1021.3 |
| 20260508164924 | 11 | 315 | 6.4 | 0.0 | 0.00 | 0.00 | 0.00 | 10 | 1021.3 |
| 20260508162829 | 12 | 315 | 4.8 | 0.0 | 0.00 | 0.00 | 0.00 | 10 | 1021.3 |
| 20260508151517 | 13 | 0 | 0.0 | 0.0 | 0.00 | 0.00 | 0.00 | 10 | 1021.2 |
| 20260508144354 | 13 | 315 | 9.7 | 0.0 | 0.00 | 0.00 | 0.00 | 10 | 1021.2 |
| 20260508143326 | 13 | 315 | 4.8 | 0.0 | 0.00 | 0.00 | 0.00 | 10 | 1021.2 |
| 20260508142259 | 14 | 315 | 0.0 | 0.0 | 0.00 | 0.00 | 0.00 | 10 | 1021.2 |
| 20260508134109 | 14 | 0 | 0.0 | 0.0 | 0.00 | 0.00 | 0.00 | 10 | 1021.3 |
| 20260508133041 | 14 | 315 | 0.0 | 0.0 | 0.00 | 0.00 | 0.00 | 10 | 1021.4 |
| 20260508132014 | 13 | 315 | 0.0 | 0.0 | 0.00 | 0.00 | 0.00 | 10 | 1021.5 |
| 20260508125919 | 12 | 45 | 1.6 | 0.0 | 0.00 | 0.00 | 0.00 | 10 | 1021.6 |
| 20260508124851 | 12 | 315 | 1.6 | 0.0 | 0.00 | 0.00 | 0.00 | 10 | 1021.7 |
| 20260508123824 | 12 | 315 | 1.6 | 0.0 | 0.00 | 0.00 | 0.00 | 10 | 1021.8 |
| 20260508122756 | 11 | 315 | 0.0 | 0.0 | 0.00 | 0.00 | 0.00 | 10 | 1021.7 |
| 20260508120701 | 12 | 315 | 0.0 | 0.0 | 0.00 | 0.00 | 0.00 | 10 | 1021.7 |
| 20260508104321 | 12 | 270 | 4.8 | 0.0 | 0.00 | 0.00 | 0.00 | 10 | 1021.6 |
| 20260508103253 | 12 | 315 | 0.0 | 0.0 | 0.00 | 0.00 | 0.00 | 10 | 1021.6 |
| 20260508101200 | 12 | 315 | 3.2 | 0.0 | 0.00 | 0.00 | 0.00 | 10 | 1021.6 |
| 20260508091940 | 12 | 0 | 0.0 | 0.0 | 0.00 | 0.00 | 0.00 | 10 | 1021.6 |
| 20260508090913 | 13 | 270 | 0.0 | 0.0 | 0.00 | 0.00 | 0.00 | 10 | 1021.6 |
| 20260508081655 | 11 | 135 | 4.8 | 0.0 | 0.00 | 0.00 | 0.00 | 10 | 1021.8 |
| 20260508080627 | 11 | 135 | 1.6 | 0.0 | 0.00 | 0.00 | 0.00 | 10 | 1021.7 |
| 20260508075600 | 12 | 315 | 0.0 | 0.0 | 0.00 | 0.00 | 0.00 | 10 | 1021.6 |
| 20260508070342 | 8 | 315 | 0.0 | 0.0 | 0.00 | 0.00 | 0.00 | 10 | 1021.6 |
| 20260508062152 | 7 | 135 | 4.8 | 0.0 | 0.00 | 0.00 | 0.00 | 10 | 1021.3 |
| 20260508060058 | 8 | 315 | 0.0 | 0.0 | 0.00 | 0.00 | 0.00 | 10 | 1021.2 |
| 20260508045812 | 6 | 135 | 0.0 | 0.0 | 0.00 | 0.00 | 0.00 | 10 | 1021.0 |
| 20260508044744 | 6 | 45 | 0.0 | 0.0 | 0.00 | 0.00 | 0.00 | 10 | 1020.9 |
| 20260508043717 | 6 | 135 | 1.6 | 0.0 | 0.00 | 0.00 | 0.00 | 10 | 1020.8 |
| 20260508040554 | 7 | 90 | 0.0 | 0.0 | 0.00 | 0.00 | 0.00 | 10 | 1020.6 |
| 20260508035526 | 6 | 315 | 0.0 | 0.0 | 0.00 | 0.00 | 0.00 | 10 | 1020.6 |
| 20260508034459 | 7 | 315 | 0.0 | 0.0 | 0.00 | 0.00 | 0.00 | 10 | 1020.4 |
| 20260508032404 | 7 | 315 | 0.0 | 0.0 | 0.00 | 0.00 | 0.00 | 10 | 1020.4 |
| 20260508025242 | 7 | 315 | 0.0 | 0.0 | 0.00 | 0.00 | 0.00 | 10 | 1020.5 |
| 20260508021052 | 7 | 315 | 0.0 | 0.0 | 0.00 | 0.00 | 0.00 | 10 | 1020.7 |
| 20260508014957 | 7 | 315 | 0.0 | 0.0 | 0.00 | 0.00 | 0.00 | 10 | 1020.7 |
| 20260508005741 | 7 | 315 | 0.0 | 0.0 | 0.00 | 0.00 | 0.00 | 10 | 1020.6 |
| 20260508001551 | 7 | 315 | 0.0 | 0.0 | 0.00 | 0.00 | 0.00 | 10 | 1020.6 |
| 20260508000524 | 7 | 315 | 0.0 | 0.0 | 0.00 | 0.00 | 0.00 | 10 | 1020.6 |
| 20260507235457 | 7 | 315 | 0.0 | 0.0 | 0.00 | 0.00 | 0.00 | 10 | 1020.7 |
| 20260507234429 | 7 | 315 | 0.0 | 0.0 | 0.00 | 0.00 | 0.00 | 10 | 1020.7 |
| 20260507233402 | 7 | 315 | 0.0 | 0.0 | 0.00 | 0.00 | 0.00 | 10 | 1020.7 |
| 20260507232335 | 7 | 315 | 0.0 | 0.0 | 0.00 | 0.00 | 0.00 | 10 | 1020.6 |